This is the latest recevied weather packets stored in our database for station/object DG1ROH. If no packets are shown the sender has not sent any weather packets the latest 1 day(s).
| Time | Temp. | Humidity | Pressure | Rain* | Wind** | Luminosity | Snow |
|---|---|---|---|---|---|---|---|
| 1778004092 | 13.33° C | 87% | 1007.7 hPa | 0 mm | 1.34 m/s, 26° | 11 W/m² | - |
| 1778003974 | 13.89° C | 87% | 1007.5 hPa | 0 mm | 1.34 m/s, 54° | 12 W/m² | - |
| 1778003851 | 13.89° C | 87% | 1007.6 hPa | 0 mm | 1.34 m/s, 324° | 12 W/m² | - |
| 1778003731 | 13.89° C | 87% | 1007.6 hPa | 0 mm | 1.34 m/s, 101° | 11 W/m² | - |
| 1778003612 | 13.89° C | 87% | 1007.6 hPa | 0 mm | 1.34 m/s, 0° | 12 W/m² | - |
| 1778003492 | 13.89° C | 87% | 1007.6 hPa | 0 mm | 1.34 m/s, 69° | 12 W/m² | - |
| 1778003373 | 13.89° C | 87% | 1007.6 hPa | 0 mm | 1.34 m/s, 16° | 12 W/m² | - |
| 1778003251 | 13.89° C | 86% | 1007.7 hPa | 0 mm | 1.34 m/s, 350° | 12 W/m² | - |
| 1778003133 | 13.89° C | 86% | 1007.6 hPa | 0 mm | 1.34 m/s, 48° | 12 W/m² | - |
| 1778003011 | 14.44° C | 86% | 1007.6 hPa | 0 mm | 1.34 m/s, 62° | 14 W/m² | - |
| 1778002893 | 14.44° C | 86% | 1007.7 hPa | 0 mm | 1.34 m/s, 86° | 14 W/m² | - |
| 1778002771 | 14.44° C | 86% | 1007.6 hPa | 0 mm | 1.34 m/s, 61° | 12 W/m² | - |
| 1778002651 | 14.44° C | 86% | 1007.6 hPa | 0 mm | 1.34 m/s, 15° | 12 W/m² | - |
| 1778002533 | 14.44° C | 85% | 1007.6 hPa | 0 mm | 1.34 m/s, 44° | 12 W/m² | - |
| 1778002411 | 14.44° C | 85% | 1007.6 hPa | 0 mm | 1.34 m/s, 56° | 11 W/m² | - |
| 1778002291 | 15° C | 85% | 1007.6 hPa | 0 mm | 1.34 m/s, 64° | 11 W/m² | - |
| 1778002172 | 15° C | 85% | 1007.6 hPa | 0 mm | 1.34 m/s, 24° | 12 W/m² | - |
| 1778002052 | 15° C | 85% | 1007.5 hPa | 0 mm | 1.34 m/s, 5° | 16 W/m² | - |
| 1778001932 | 15° C | 85% | 1007.6 hPa | 0 mm | 1.34 m/s, 346° | 21 W/m² | - |
| 1778001812 | 15° C | 85% | 1007.5 hPa | 0 mm | 0.89 m/s, 348° | 26 W/m² | - |
| 1778001692 | 15° C | 85% | 1007.5 hPa | 0 mm | 0.89 m/s, 49° | 32 W/m² | - |
| 1778001572 | 15° C | 85% | 1007.5 hPa | 0 mm | 0.89 m/s, 73° | 37 W/m² | - |
| 1778001452 | 15° C | 85% | 1007.5 hPa | 0 mm | 1.34 m/s, 30° | 39 W/m² | - |
| 1778001331 | 15° C | 84% | 1007.6 hPa | 0 mm | 1.34 m/s, 20° | 37 W/m² | - |
| 1778001212 | 15° C | 84% | 1007.6 hPa | 0 mm | 1.34 m/s, 26° | 40 W/m² | - |
* Rain latest hour (hover to see other rain measurements)
** Current wind speed in m/s (hover to see current wind gust speed)